Weather in Vizhnitsa

Ukraine / Chernovtci District     48°14′42″N   25°10′55″E
temp.,
°C
wind,
m/s
gust,
m/s
humid.,
%
clouds,
%
prec.,
mm/h
press.,
hPa
HPBL,
m
6 may, thu
thu600:00+9ssw237662 0.0 100435
03:00+7nnw379698 0.5 1007447
06:00+5nw2793100 0.1 1010438
09:00+6nnw2584100 0.2 1013679
12:00+12nnw255131 0.2 10131654
15:00+15wsw563199 0.3 10122552
18:00+14wsw4842100 0.0 10121744
21:00+10sw3753100 0.0 1013422
7 may, fri
fri700:00+7ssw226592 0.0 101330
03:00+6sw2273100 0.0 101331
06:00+7ssw2272100 0.0 101150
09:00+10ssw2568100 0.0 1009280
12:00+13ssw1366100 0.0 1008665
15:00+13sw3867100 0.0 10071329
18:00+13wsw2572100 0.1 1007523
21:00+8sw339099 0.9 100965
8 may, sat
sat800:00+8sw3592100 0.5 1010140
03:00+5nnw4996100 0.8 1013827
06:00+3nnw41097100 1.4 1016858
09:00+4nw259187 4.3 1018556
12:00+6nnw586957 0.2 10191051
15:00+10n675458 0.2 10191554
18:00+8nnw575758 0.1 10211311
21:00+3wsw11860 0.1 102310
9 may, sun
sun900:00+2sw228895 0.0 102535
03:00+2ssw228614 0.0 102530
06:00+1sw22865 0.0 102726
09:00+9s11563 0.0 1026468
12:00+14ene22396 0.0 10251806
15:00+16e443966 0.0 10231552
18:00+14e4553100 0.0 1023900
21:00+8sse247845 0.0 102561
10 may, mon
mon1000:00+6s22845 0.0 102529
03:00+5ssw22825 0.0 102421
06:00+5ssw22805 0.0 102418
09:00+13ese12515 0.0 1023338
12:00+18e45435 0.0 1022970
15:00+20ese66435 0.0 10201026
18:00+18ese58545 0.0 1020648
21:00+11se37760 0.0 1020157